Total_Precipitation_Accumulation
0.33 0.70 0.96 0.85 0.77 0.78 0.74 0.73 0.75 0.64 0.57 0.60 0.55 0.49 0.53 0.56 0.60 0.53 0.54 0.53 0.44 0.40 0.42 0.40 0.35 0.37 0.41 0.52 0.63 0.79 1.16 1.60 1.78 1.69 1.67 1.71 1.76 1.73 1.63 1.59 1.56 1.59 1.59 1.59
0.39 0.49 0.39 0.43 0.49 0.60 0.69 0.74 0.76 0.66 0.48 0.48 0.48 0.42 0.43 0.49 0.50 0.46 0.44 0.46 0.41 0.37 0.33 0.31 0.28 0.32 0.36 0.53 0.69 0.80 1.10 1.55 1.75 1.86 1.98 2.19 2.36 2.23 2.08 2.06 2.00 2.07 2.08 2.23
0.34 0.30 0.24 0.35 0.52 0.63 0.68 0.71 0.70 0.64 0.49 0.44 0.43 0.45 0.40 0.45 0.40 0.38 0.38 0.39 0.35 0.28 0.27 0.28 0.27 0.31 0.35 0.48 0.62 0.74 0.95 1.25 1.60 1.86 2.12 2.40 2.62 2.60 2.46 2.29 2.26 2.32 2.37 2.52
0.33 0.27 0.27 0.35 0.44 0.54 0.70 0.48 0.44 0.44 0.58 0.59 0.45 0.68 0.48 0.46 0.43 0.38 0.38 0.37 0.36 0.30 0.29 0.32 0.30 0.33 0.37 0.44 0.54 0.71 0.91 1.15 1.39 1.62 2.02 2.45 2.74 2.83 2.73 2.63 2.58 2.53 2.53 2.58
0.31 0.25 0.28 0.33 0.34 0.41 0.53 0.41 0.41 0.43 0.53 0.50 0.35 0.49 0.48 0.39 0.42 0.37 0.34 0.33 0.33 0.31 0.32 0.36 0.36 0.40 0.46 0.49 0.55 0.69 0.84 1.07 1.32 1.54 1.88 2.27 2.53 2.74 2.87 2.71 2.58 2.59 2.61 2.63
0.26 0.20 0.21 0.27 0.31 0.34 0.41 0.44 0.44 0.46 0.52 0.58 0.28 0.41 0.53 0.37 0.34 0.34 0.31 0.28 0.29 0.32 0.38 0.42 0.52 0.57 0.60 0.55 0.60 0.70 0.81 0.98 1.14 1.26 1.47 1.69 2.04 2.26 2.60 2.60 2.53 2.64 2.62 2.53
0.31 0.26 0.22 0.24 0.31 0.34 0.40 0.63 0.83 0.84 0.80 0.54 0.22 0.37 0.52 0.38 0.30 0.31 0.32 0.29 0.30 0.34 0.41 0.50 0.64 0.71 0.74 0.64 0.61 0.66 0.82 0.90 0.98 1.06 1.15 1.28 1.53 1.68 2.04 2.36 2.34 2.26 2.30 2.35
0.34 0.35 0.21 0.21 0.28 0.32 0.34 0.55 0.87 0.99 0.87 0.56 0.37 0.54 0.59 0.42 0.34 0.31 0.30 0.33 0.37 0.42 0.48 0.66 0.83 0.90 0.89 0.79 0.71 0.73 0.85 0.93 0.96 0.99 1.00 1.08 1.19 1.28 1.45 1.68 1.79 1.81 1.86 2.08
0.35 0.31 0.19 0.20 0.20 0.22 0.30 0.36 0.42 0.61 0.59 0.62 0.58 0.66 0.59 0.40 0.38 0.37 0.40 0.45 0.56 0.64 0.69 0.83 0.99 1.07 0.99 0.86 0.77 0.80 0.90 1.01 1.01 1.03 1.05 1.11 1.12 1.12 1.22 1.25 1.39 1.58 1.61 1.66
0.37 0.35 0.22 0.21 0.23 0.21 0.22 0.28 0.44 0.66 0.85 0.88 0.71 0.71 0.69 0.57 0.53 0.50 0.54 0.60 0.72 0.82 0.91 1.00 1.14 1.18 1.05 0.90 0.80 0.81 0.89 1.01 1.18 1.30 1.25 1.21 1.25 1.30 1.50 1.52 1.37 1.35 1.51 1.57
0.48 0.48 0.29 0.25 0.24 0.24 0.26 0.36 0.51 0.69 0.72 0.99 1.11 1.02 0.80 0.71 0.71 0.73 0.77 0.81 0.87 1.00 1.01 1.01 1.11 1.17 1.07 0.88 0.81 0.79 0.83 0.93 1.06 1.11 1.15 1.12 1.18 1.29 1.54 1.75 1.68 1.49 1.48 1.50
0.46 0.61 0.44 0.29 0.27 0.28 0.35 0.46 0.68 1.04 0.98 0.90 1.10 1.10 0.78 0.70 0.73 0.75 0.76 0.76 0.80 0.91 0.91 0.96 1.01 0.96 0.88 0.75 0.68 0.67 0.69 0.80 0.93 0.93 0.98 1.04 1.05 1.15 1.26 1.37 1.38 1.31 1.22 1.19
0.60 0.82 0.81 0.65 0.60 0.47 0.54 0.55 0.64 0.84 0.97 0.99 1.13 1.10 0.73 0.66 0.61 0.63 0.67 0.70 0.71 0.71 0.71 0.72 0.75 0.73 0.72 0.73 0.71 0.66 0.66 0.75 0.82 0.88 0.95 1.03 1.01 1.01 1.02 1.05 0.98 1.01 1.01 1.06
0.62 0.70 0.78 0.84 0.79 0.73 0.70 0.59 0.55 0.78 1.07 0.98 0.93 0.88 0.71 0.63 0.58 0.60 0.62 0.64 0.67 0.60 0.52 0.53 0.56 0.60 0.67 0.70 0.72 0.69 0.64 0.71 0.81 0.97 1.04 1.11 1.10 1.08 1.07 1.04 1.00 1.00 1.00 1.03
0.50 0.51 0.40 0.37 0.39 0.51 0.55 0.47 0.47 0.57 0.67 0.83 0.78 0.74 0.60 0.57 0.62 0.65 0.63 0.58 0.55 0.48 0.41 0.42 0.44 0.49 0.52 0.55 0.60 0.64 0.60 0.65 0.73 0.86 0.98 1.03 1.10 1.14 1.07 0.97 0.92 0.96 0.93 0.91
0.38 0.42 0.33 0.28 0.28 0.37 0.44 0.42 0.43 0.44 0.48 0.59 0.64 0.62 0.49 0.45 0.45 0.47 0.45 0.39 0.41 0.41 0.35 0.32 0.34 0.37 0.38 0.40 0.43 0.45 0.52 0.66 0.70 0.77 0.87 1.06 1.13 1.06 0.98 0.88 0.86 0.87 0.84 0.82
0.36 0.46 0.54 0.43 0.33 0.38 0.61 0.57 0.57 0.59 0.53 0.54 0.48 0.39 0.26 0.26 0.28 0.32 0.33 0.32 0.37 0.36 0.31 0.28 0.29 0.31 0.32 0.35 0.41 0.46 0.53 0.63 0.64 0.70 0.85 1.05 1.06 0.97 0.91 0.91 0.93 0.88 0.84 0.85
0.30 0.48 0.67 0.53 0.52 0.82 0.93 0.65 0.62 0.59 0.39 0.25 0.19 0.17 0.16 0.22 0.21 0.20 0.22 0.25 0.28 0.28 0.24 0.23 0.24 0.25 0.26 0.29 0.35 0.40 0.46 0.48 0.53 0.60 0.71 0.89 0.92 0.89 0.92 0.92 0.87 0.80 0.74 0.72
0.29 0.50 0.73 0.62 0.64 0.78 0.71 0.46 0.39 0.40 0.29 0.13 0.11 0.12 0.14 0.17 0.16 0.13 0.14 0.15 0.16 0.17 0.14 0.14 0.16 0.19 0.21 0.19 0.22 0.27 0.30 0.32 0.36 0.47 0.58 0.70 0.72 0.77 0.78 0.76 0.77 0.72 0.67 0.66
0.43 0.56 0.83 0.75 0.86 0.82 0.43 0.24 0.23 0.32 0.41 0.16 0.12 0.12 0.10 0.11 0.15 0.11 0.08 0.09 0.09 0.10 0.09 0.08 0.10 0.14 0.18 0.16 0.17 0.18 0.23 0.26 0.28 0.38 0.49 0.59 0.63 0.65 0.65 0.70 0.73 0.72 0.68 0.66
0.46 0.59 0.69 0.72 0.93 0.74 0.34 0.22 0.26 0.44 0.52 0.25 0.16 0.12 0.09 0.08 0.09 0.07 0.07 0.07 0.07 0.07 0.07 0.07 0.07 0.12 0.16 0.17 0.15 0.13 0.17 0.20 0.24 0.29 0.39 0.47 0.53 0.60 0.68 0.76 0.77 0.79 0.75 0.70
0.56 0.60 0.60 0.68 0.85 0.77 0.37 0.34 0.42 0.43 0.32 0.25 0.18 0.14 0.10 0.07 0.05 0.04 0.04 0.05 0.06 0.06 0.06 0.06 0.07 0.13 0.15 0.16 0.15 0.12 0.14 0.19 0.21 0.21 0.28 0.40 0.50 0.57 0.67 0.79 0.84 0.81 0.79 0.78
0.57 0.62 0.66 0.75 0.85 0.58 0.40 0.41 0.39 0.33 0.31 0.22 0.14 0.12 0.10 0.07 0.05 0.03 0.03 0.04 0.05 0.06 0.06 0.06 0.08 0.11 0.10 0.12 0.13 0.13 0.15 0.16 0.16 0.18 0.22 0.30 0.36 0.40 0.50 0.60 0.72 0.77 0.76 0.74
0.40 0.40 0.50 0.61 0.53 0.34 0.33 0.34 0.29 0.26 0.23 0.17 0.15 0.11 0.09 0.07 0.06 0.04 0.03 0.03 0.04 0.05 0.06 0.07 0.10 0.12 0.11 0.10 0.12 0.13 0.14 0.15 0.16 0.19 0.22 0.24 0.27 0.28 0.33 0.46 0.54 0.59 0.64 0.68
0.34 0.40 0.46 0.53 0.48 0.34 0.28 0.29 0.27 0.24 0.18 0.15 0.17 0.16 0.13 0.10 0.07 0.05 0.04 0.04 0.04 0.05 0.05 0.07 0.09 0.11 0.11 0.11 0.11 0.13 0.14 0.15 0.17 0.18 0.20 0.21 0.23 0.26 0.29 0.35 0.46 0.52 0.58 0.62
0.28 0.39 0.52 0.57 0.49 0.45 0.30 0.25 0.22 0.21 0.17 0.14 0.15 0.17 0.18 0.19 0.15 0.09 0.06 0.04 0.05 0.06 0.06 0.09 0.09 0.10 0.11 0.10 0.10 0.13 0.15 0.16 0.21 0.23 0.21 0.21 0.22 0.25 0.28 0.31 0.38 0.42 0.45 0.47